Location: Montreal
(45.5087°N, 73.5540°W)
Time: 23:20:27
(UTC-05:00)

N. Korean satellite - Visible Passes

Search period start: 02 February 2023 00:00
Search period end: 12 February 2023 00:00
Orbit: 407 x 443 km, 97.3° (Epoch: 02 February)

Date Brightness Start Highest point End Pass type
(mag) Time Alt. Az. Time Alt. Az. Time Alt. Az.
02 Feb 9.8 04:17:01 10° ENE 04:18:02 11° E 04:19:04 10° ESE visible
02 Feb 6.6 05:47:26 10° N 05:50:30 41° WNW 05:53:35 10° SW visible
03 Feb 7.3 05:04:48 10° NNE 05:07:56 47° E 05:11:06 10° S visible
03 Feb 8.3 06:38:55 10° NW 06:39:48 11° WNW 06:40:42 10° W visible
04 Feb 9.6 04:23:21 10° ENE 04:25:04 14° E 04:26:48 10° SE visible
04 Feb 6.9 05:54:30 10° N 05:57:27 33° WNW 06:00:25 10° SW visible
05 Feb 6.8 05:11:35 10° NNE 05:14:48 59° E 05:18:01 10° S visible
06 Feb 9.3 04:29:41 10° NE 04:31:50 16° E 04:34:00 10° SE visible
06 Feb 7.2 06:01:18 10° N 06:04:08 28° WNW 06:06:58 10° SW visible
07 Feb 6.4 05:18:08 10° NNE 05:21:24 74° ESE 05:24:40 10° S visible
08 Feb 9.1 04:35:54 10° NE 04:38:21 19° E 04:40:48 10° SE visible
08 Feb 7.4 06:07:54 10° NNW 06:10:33 24° WNW 06:13:14 10° SW visible
09 Feb 6.2 05:24:28 10° NNE 05:27:44 89° NW 05:31:01 10° SSW visible
10 Feb 8.8 04:41:55 10° NE 04:44:36 23° E 04:47:18 10° SSE visible
10 Feb 7.7 06:14:15 10° NNW 06:16:44 20° WNW 06:19:13 10° WSW visible
11 Feb 6.2 05:30:33 10° N 05:33:49 74° WNW 05:37:06 10° SSW visible
